Weather History for New Ulm, MN

Change the Weather History Date:

Wednesday, October 23, 2013

  Actual Average Record
Temperature  
Mean Temperature 32 °F -  
Max Temperature 39 °F 59 °F 82 °F (1963)
Min Temperature 26 °F 37 °F 21 °F (2006)
Degree Days  
Heating Degree Days 32    
Moisture  
Dew Point 25 °F    
Average Humidity 75    
Maximum Humidity 100    
Minimum Humidity 52    
Precipitation  
Precipitation 0.00 in - - ()
Sea Level Pressure  
Sea Level Pressure 30.06 in    
Wind  
Wind Speed 7 mph (NW)    
Max Wind Speed 18 mph    
Max Gust Speed 25 mph    
Visibility 10 miles    
Events      
Averages and records for this station are not official NWS values.
T = Trace of Precipitation, MM = Missing Value Source: NWS Daily Summary

Daily Weather History Graph

Daily Weather History Graph

Search for Another Location

Airport:

Trip Planner

Search our weather history database for the weather conditions in past years. The results will help you decide how hot, cold, wet, or windy it might be!

Date:

Astronomy

Oct. 23, 2013 Rise Set
Actual Time 7:43 AM CDT 6:20 PM CDT
Civil Twilight 7:13 AM CDT 6:49 PM CDT
Nautical Twilight 6:40 AM CDT 7:23 PM CDT
Astronomical Twilight 6:06 AM CDT 7:57 PM CDT
Moon 9:46 PM CDT (10/23) 12:07 PM CDT (10/23)
Length of Visible Light 11h 36m
Length of Day
10h 36m
Waning Gibbous, 79% of the Moon is Illuminated
Oct 23
Waning Gibbous
Oct 26
Last Quarter
Nov 3
New
Nov 9
First Quarter
Nov 17
Full

Hourly Weather History & Observations

Time (CDT) Temp. Windchill Dew Point Humidity Pressure Visibility Wind Dir Wind Speed Gust Speed Precip Events Conditions
12:12 AM 32.0 °F 27.5 °F 26.6 °F 80% 30.04 in 10.0 mi NW 4.6 mph - N/A   Overcast
12:33 AM 30.2 °F 25.4 °F 26.6 °F 86% 30.04 in 10.0 mi NW 4.6 mph - N/A   Overcast
12:53 AM 30.2 °F 26.7 °F 26.6 °F 86% 30.04 in 10.0 mi WNW 3.5 mph - N/A   Overcast
1:13 AM 30.2 °F 25.4 °F 26.6 °F 86% 30.04 in 10.0 mi NNW 4.6 mph - N/A   Overcast
1:33 AM 32.0 °F 28.7 °F 26.6 °F 80% 30.04 in 10.0 mi NW 3.5 mph - N/A   Overcast
1:53 AM 30.2 °F - 26.6 °F 86% 30.04 in 10.0 mi Calm Calm - N/A   Overcast
2:13 AM 30.2 °F 24.3 °F 26.6 °F 86% 30.04 in 10.0 mi WNW 5.8 mph - N/A   Overcast
2:33 AM 30.2 °F 24.3 °F 26.6 °F 86% 30.04 in 10.0 mi West 5.8 mph - N/A   Mostly Cloudy
2:53 AM 30.2 °F 25.4 °F 26.6 °F 86% 30.04 in 10.0 mi West 4.6 mph - N/A   Mostly Cloudy
3:13 AM 28.4 °F 24.6 °F 26.6 °F 93% 30.04 in 10.0 mi West 3.5 mph - N/A   Overcast
3:33 AM 28.4 °F 24.6 °F 26.6 °F 93% 30.04 in 10.0 mi West 3.5 mph - N/A   Overcast
3:53 AM 28.4 °F 24.6 °F 26.6 °F 93% 30.03 in 10.0 mi West 3.5 mph - N/A   Overcast
4:13 AM 30.2 °F 26.7 °F 28.4 °F 93% 30.02 in 10.0 mi West 3.5 mph - N/A   Overcast
4:33 AM 30.2 °F 25.4 °F 28.4 °F 93% 30.03 in 10.0 mi West 4.6 mph - N/A   Overcast
4:53 AM 30.2 °F 25.4 °F 28.4 °F 93% 30.03 in 10.0 mi West 4.6 mph - N/A   Overcast
5:13 AM 32.0 °F 28.7 °F 28.4 °F 87% 30.03 in 10.0 mi West 3.5 mph - N/A   Overcast
5:33 AM 30.2 °F 25.4 °F 28.4 °F 93% 30.03 in 10.0 mi West 4.6 mph - N/A   Overcast
5:53 AM 28.4 °F 24.6 °F 26.6 °F 93% 30.03 in 10.0 mi West 3.5 mph - N/A   Scattered Clouds
6:12 AM 26.6 °F 21.2 °F 26.6 °F 100% 30.03 in 10.0 mi West 4.6 mph - N/A   Clear
6:33 AM 28.4 °F 22.2 °F 26.6 °F 93% 30.03 in 10.0 mi West 5.8 mph - N/A   Clear
6:53 AM 26.6 °F 20.0 °F 26.6 °F 100% 30.04 in 10.0 mi WNW 5.8 mph - N/A   Clear
7:12 AM 26.6 °F 21.2 °F 26.6 °F 100% 30.03 in 10.0 mi WNW 4.6 mph - N/A   Clear
7:33 AM 28.4 °F 22.2 °F 26.6 °F 93% 30.03 in 10.0 mi WNW 5.8 mph - N/A   Mostly Cloudy
7:53 AM 28.4 °F 23.3 °F 28.4 °F 100% 30.03 in 10.0 mi West 4.6 mph - N/A   Overcast
8:12 AM 30.2 °F 26.7 °F 28.4 °F 93% 30.03 in 10.0 mi WNW 3.5 mph - N/A   Overcast
8:33 AM 30.2 °F 26.7 °F 30.2 °F 100% 30.03 in 10.0 mi West 3.5 mph - N/A   Overcast
8:53 AM 32.0 °F 27.5 °F 30.2 °F 93% 30.04 in 10.0 mi West 4.6 mph - N/A   Overcast
9:12 AM 32.0 °F 27.5 °F 30.2 °F 93% 30.04 in 10.0 mi West 4.6 mph - N/A   Overcast
9:33 AM 33.8 °F 28.6 °F 30.2 °F 87% 30.05 in 10.0 mi West 5.8 mph - N/A   Overcast
9:53 AM 33.8 °F 27.7 °F 30.2 °F 87% 30.05 in 10.0 mi West 6.9 mph - N/A   Overcast
10:12 AM 33.8 °F 27.7 °F 30.2 °F 87% 30.05 in 10.0 mi WNW 6.9 mph - N/A   Overcast
10:33 AM 33.8 °F 27.7 °F 30.2 °F 87% 30.05 in 10.0 mi WNW 6.9 mph - N/A   Overcast
10:53 AM 33.8 °F 26.4 °F 30.2 °F 87% 30.06 in 10.0 mi NW 9.2 mph - N/A   Overcast
11:12 AM 33.8 °F 27.0 °F 28.4 °F 81% 30.06 in 10.0 mi NW 8.1 mph - N/A   Overcast
11:33 AM 35.6 °F 27.1 °F 26.6 °F 70% 30.06 in 10.0 mi NW 12.7 mph - N/A   Mostly Cloudy
11:53 AM 35.6 °F 28.0 °F 26.6 °F 70% 30.06 in 10.0 mi NW 10.4 mph - N/A   Mostly Cloudy
12:12 PM 35.6 °F 25.9 °F 24.8 °F 65% 30.06 in 10.0 mi NW 16.1 mph - N/A   Overcast
12:33 PM 35.6 °F 25.9 °F 24.8 °F 65% 30.05 in 10.0 mi NNW 16.1 mph 20.7 mph N/A   Mostly Cloudy
12:53 PM 35.6 °F 25.2 °F 24.8 °F 65% 30.06 in 10.0 mi NW 18.4 mph 24.2 mph N/A   Mostly Cloudy
1:12 PM 35.6 °F 25.9 °F 24.8 °F 65% 30.05 in 10.0 mi NW 16.1 mph 20.7 mph N/A   Overcast
1:33 PM 35.6 °F 26.6 °F 24.8 °F 65% 30.05 in 10.0 mi NNW 13.8 mph 25.3 mph N/A   Mostly Cloudy
1:53 PM 35.6 °F 25.2 °F 24.8 °F 65% 30.04 in 10.0 mi NNW 18.4 mph 23.0 mph N/A   Overcast
2:12 PM 35.6 °F 26.2 °F 24.8 °F 65% 30.05 in 10.0 mi NW 15.0 mph 20.7 mph N/A   Overcast
2:33 PM 35.6 °F 25.5 °F 23.0 °F 60% 30.05 in 10.0 mi NNW 17.3 mph 20.7 mph N/A   Overcast
2:53 PM 37.4 °F 28.9 °F 23.0 °F 56% 30.04 in 10.0 mi NNW 13.8 mph 21.9 mph N/A   Mostly Cloudy
3:12 PM 39.2 °F 30.5 °F 23.0 °F 52% 30.05 in 10.0 mi WNW 16.1 mph 25.3 mph N/A   Mostly Cloudy
3:33 PM 37.4 °F 27.8 °F 21.2 °F 52% 30.06 in 10.0 mi NW 17.3 mph - N/A   Mostly Cloudy
3:53 PM 37.4 °F 28.2 °F 21.2 °F 52% 30.06 in 10.0 mi NW 16.1 mph 20.7 mph N/A   Scattered Clouds
4:13 PM 37.4 °F 28.5 °F 21.2 °F 52% 30.06 in 10.0 mi NNW 15.0 mph 24.2 mph N/A   Scattered Clouds
4:33 PM 37.4 °F 27.8 °F 21.2 °F 52% 30.06 in 10.0 mi NNW 17.3 mph - N/A   Mostly Cloudy
4:53 PM 37.4 °F 28.2 °F 21.2 °F 52% 30.06 in 10.0 mi NNW 16.1 mph 19.6 mph N/A   Overcast
5:13 PM 37.4 °F 27.8 °F 21.2 °F 52% 30.07 in 10.0 mi NW 17.3 mph 21.9 mph N/A   Overcast
5:33 PM 37.4 °F 27.8 °F 21.2 °F 52% 30.07 in 10.0 mi NW 17.3 mph - N/A   Overcast
5:53 PM 35.6 °F 25.9 °F 21.2 °F 56% 30.08 in 10.0 mi NW 16.1 mph 19.6 mph N/A   Overcast
6:12 PM 35.6 °F 27.5 °F 21.2 °F 56% 30.08 in 10.0 mi NW 11.5 mph - N/A   Overcast
6:33 PM 35.6 °F 27.1 °F 21.2 °F 56% 30.08 in 10.0 mi NW 12.7 mph 18.4 mph N/A   Overcast
6:53 PM 35.6 °F 27.5 °F 21.2 °F 56% 30.09 in 10.0 mi NW 11.5 mph 17.3 mph N/A   Overcast
7:12 PM 35.6 °F 28.0 °F 21.2 °F 56% 30.09 in 10.0 mi NW 10.4 mph - N/A   Overcast
7:33 PM 35.6 °F 29.2 °F 21.2 °F 56% 30.10 in 10.0 mi WNW 8.1 mph - N/A   Overcast
7:53 PM 35.6 °F 28.6 °F 21.2 °F 56% 30.10 in 10.0 mi NW 9.2 mph - N/A   Overcast
8:12 PM 35.6 °F 28.6 °F 23.0 °F 60% 30.10 in 10.0 mi NW 9.2 mph - N/A   Overcast
8:33 PM 35.6 °F 29.2 °F 23.0 °F 60% 30.10 in 10.0 mi NW 8.1 mph - N/A   Overcast
8:53 PM 35.6 °F 28.6 °F 24.8 °F 65% 30.10 in 10.0 mi NW 9.2 mph - N/A   Overcast
9:12 PM 35.6 °F 29.2 °F 24.8 °F 65% 30.11 in 10.0 mi NNW 8.1 mph - N/A   Overcast
9:33 PM 33.8 °F 28.6 °F 24.8 °F 70% 30.11 in 10.0 mi NNW 5.8 mph - N/A   Overcast
9:53 PM 35.6 °F 28.6 °F 24.8 °F 65% 30.11 in 10.0 mi NW 9.2 mph - N/A   Overcast
10:12 PM 33.8 °F 27.7 °F 24.8 °F 70% 30.11 in 10.0 mi NW 6.9 mph - N/A   Overcast
10:33 PM 35.6 °F 27.1 °F 24.8 °F 65% 30.11 in 10.0 mi NW 12.7 mph - N/A   Overcast
10:53 PM 35.6 °F 26.2 °F 24.8 °F 65% 30.12 in 10.0 mi NW 15.0 mph - N/A   Overcast
11:12 PM 35.6 °F 26.6 °F 24.8 °F 65% 30.12 in 10.0 mi NNW 13.8 mph 18.4 mph N/A   Overcast
11:33 PM 33.8 °F 24.8 °F 24.8 °F 70% 30.12 in 10.0 mi NNW 12.7 mph - N/A   Overcast
11:53 PM 33.8 °F 25.8 °F 24.8 °F 70% 30.13 in 10.0 mi NNW 10.4 mph - N/A   Overcast